Time,TemperatureF,DewpointF,PressureIn,WindDirection,WindDirectionDegrees,WindSpeedMPH,WindSpeedGustMPH,Humidity,HourlyPrecipIn,Conditions,Clouds,dailyrainin,SoftwareType,DateUTC
2013-02-25 00:00:00,67.8,60.0,30.06,WSW,249,0.0,0.0,76,0.00,,---,0.00,VWS V14.01,2013-02-25 05:00:00,
2013-02-25 00:01:00,67.8,60.0,30.06,WSW,249,0.0,0.0,76,0.00,,---,0.00,VWS V14.01,2013-02-25 05:01:00,
2013-02-25 00:03:00,67.8,60.0,30.06,WSW,249,0.0,0.0,76,0.00,,---,0.00,VWS V14.01,2013-02-25 05:03:00,
2013-02-25 00:05:00,67.8,60.3,30.06,WSW,249,0.0,0.0,77,0.00,,---,0.00,VWS V14.01,2013-02-25 05:05:00,
2013-02-25 00:10:00,68.0,60.9,30.03,WSW,249,0.0,0.0,78,0.00,,---,0.00,VWS V14.01,2013-02-25 05:10:00,
2013-02-25 00:15:00,68.2,61.4,30.03,WSW,249,0.0,0.0,79,0.00,,---,0.00,VWS V14.01,2013-02-25 05:15:00,
2013-02-25 00:20:00,68.2,61.4,30.03,WSW,249,0.0,0.0,79,0.00,,---,0.00,VWS V14.01,2013-02-25 05:20:00,
2013-02-25 00:25:00,68.4,61.2,30.03,WSW,249,0.0,0.0,78,0.00,,---,0.00,VWS V14.01,2013-02-25 05:25:00,
2013-02-25 00:30:00,68.4,61.2,30.03,WSW,249,0.0,0.0,78,0.00,,---,0.00,VWS V14.01,2013-02-25 05:30:00,
2013-02-25 00:35:00,68.0,60.9,30.03,WSW,249,0.0,0.0,78,0.00,,---,0.00,VWS V14.01,2013-02-25 05:35:00,
2013-02-25 00:40:00,68.0,60.9,30.03,WSW,249,0.0,0.0,78,0.00,,---,0.00,VWS V14.01,2013-02-25 05:40:00,
2013-02-25 00:45:00,67.8,61.4,30.03,WSW,249,0.0,0.0,80,0.00,,---,0.00,VWS V14.01,2013-02-25 05:45:00,
2013-02-25 00:50:00,68.0,62.3,30.03,WSW,249,0.0,0.0,82,0.00,,---,0.00,VWS V14.01,2013-02-25 05:50:00,
2013-02-25 00:55:00,68.2,62.8,30.03,WSW,249,0.0,0.0,83,0.00,,---,0.00,VWS V14.01,2013-02-25 05:55:00,
2013-02-25 01:00:00,68.0,62.3,30.03,WSW,249,0.0,0.0,82,0.00,,---,0.00,VWS V14.01,2013-02-25 06:00:00,
2013-02-25 01:06:00,67.6,61.6,30.03,WSW,249,0.0,0.0,81,0.00,,---,0.00,VWS V14.01,2013-02-25 06:06:00,
2013-02-25 01:11:00,67.1,61.1,30.03,WSW,249,0.0,0.0,81,0.00,,---,0.00,VWS V14.01,2013-02-25 06:11:00,
2013-02-25 01:16:00,66.9,61.2,30.03,WSW,249,0.0,0.0,82,0.00,,---,0.00,VWS V14.01,2013-02-25 06:16:00,
2013-02-25 01:21:00,66.9,61.2,30.03,WSW,249,0.0,0.0,82,0.00,,---,0.00,VWS V14.01,2013-02-25 06:21:00,
2013-02-25 01:26:00,66.9,61.9,30.03,WSW,249,0.0,0.0,84,0.00,,---,0.00,VWS V14.01,2013-02-25 06:26:00,
2013-02-25 01:31:00,66.9,62.3,30.03,WSW,249,0.0,0.0,85,0.00,,---,0.00,VWS V14.01,2013-02-25 06:31:00,
2013-02-25 01:36:00,66.9,62.3,30.03,WSW,249,0.0,0.0,85,0.00,,---,0.00,VWS V14.01,2013-02-25 06:36:00,
2013-02-25 01:41:00,66.9,62.6,30.03,WSW,249,0.0,0.0,86,0.00,,---,0.00,VWS V14.01,2013-02-25 06:41:00,
2013-02-25 01:46:00,66.9,62.6,30.03,WSW,249,0.0,0.0,86,0.00,,---,0.00,VWS V14.01,2013-02-25 06:46:00,
2013-02-25 01:51:00,66.9,62.6,30.03,WSW,249,0.0,0.0,86,0.00,,---,0.00,VWS V14.01,2013-02-25 06:51:00,
2013-02-25 01:56:00,66.7,62.1,30.03,WSW,249,0.0,0.0,85,0.00,,---,0.00,VWS V14.01,2013-02-25 06:56:00,
2013-02-25 02:01:00,66.7,62.1,30.03,WSW,249,0.0,0.0,85,0.00,,---,0.00,VWS V14.01,2013-02-25 07:01:00,
2013-02-25 02:06:00,66.6,62.2,30.03,WSW,249,0.0,0.0,86,0.00,,---,0.00,VWS V14.01,2013-02-25 07:06:00,
2013-02-25 02:11:00,66.4,62.7,30.03,WSW,249,0.0,0.0,88,0.00,,---,0.00,VWS V14.01,2013-02-25 07:11:00,
2013-02-25 02:16:00,66.4,63.0,30.03,WSW,249,0.0,0.0,89,0.00,,---,0.00,VWS V14.01,2013-02-25 07:16:00,
2013-02-25 02:21:00,66.4,63.0,30.00,WSW,249,0.0,0.0,89,0.00,,---,0.00,VWS V14.01,2013-02-25 07:21:00,
2013-02-25 02:26:00,66.6,63.5,30.00,WSW,249,0.0,0.0,90,0.00,,---,0.00,VWS V14.01,2013-02-25 07:26:00,
2013-02-25 02:31:00,66.6,63.5,30.00,WSW,249,0.0,0.0,90,0.00,,---,0.00,VWS V14.01,2013-02-25 07:31:00,
2013-02-25 02:36:00,66.6,63.2,30.00,WSW,249,0.0,0.0,89,0.00,,---,0.00,VWS V14.01,2013-02-25 07:36:00,
2013-02-25 02:42:00,66.4,63.0,30.00,WSW,249,0.0,0.0,89,0.00,,---,0.00,VWS V14.01,2013-02-25 07:42:00,
2013-02-25 02:47:00,66.2,63.2,30.00,WSW,249,0.0,0.0,90,0.00,,---,0.00,VWS V14.01,2013-02-25 07:47:00,
2013-02-25 02:52:00,66.2,63.5,30.00,WSW,249,0.0,0.0,91,0.00,,---,0.00,VWS V14.01,2013-02-25 07:52:00,
2013-02-25 02:57:00,66.2,63.5,30.00,WSW,249,0.0,0.0,91,0.00,,---,0.00,VWS V14.01,2013-02-25 07:57:00,
2013-02-25 03:02:00,66.2,63.5,30.00,WSW,249,0.0,0.0,91,0.00,,---,0.00,VWS V14.01,2013-02-25 08:02:00,
2013-02-25 03:07:00,66.0,63.3,30.00,WSW,249,0.0,0.0,91,0.00,,---,0.00,VWS V14.01,2013-02-25 08:07:00,
2013-02-25 03:12:00,66.2,63.8,30.00,WSW,249,0.0,0.0,92,0.00,,---,0.00,VWS V14.01,2013-02-25 08:12:00,
2013-02-25 03:17:00,66.2,63.8,30.00,WSW,249,0.0,0.0,92,0.00,,---,0.00,VWS V14.01,2013-02-25 08:17:00,
2013-02-25 03:22:00,66.2,63.8,30.00,WSW,249,0.0,0.0,92,0.00,,---,0.00,VWS V14.01,2013-02-25 08:22:00,
2013-02-25 03:27:00,66.0,63.6,30.00,WSW,249,0.0,0.0,92,0.00,,---,0.00,VWS V14.01,2013-02-25 08:27:00,
2013-02-25 03:32:00,66.2,63.8,30.00,WSW,249,0.0,0.0,92,0.00,,---,0.00,VWS V14.01,2013-02-25 08:32:00,
2013-02-25 03:37:00,66.2,63.5,30.00,WSW,249,0.0,0.0,91,0.00,,---,0.00,VWS V14.01,2013-02-25 08:37:00,
2013-02-25 03:42:00,66.0,63.6,30.00,WSW,249,0.0,0.0,92,0.00,,---,0.00,VWS V14.01,2013-02-25 08:42:00,
2013-02-25 03:47:00,66.0,63.6,30.00,WSW,249,0.0,0.0,92,0.00,,---,0.00,VWS V14.01,2013-02-25 08:47:00,
2013-02-25 03:52:00,66.0,63.6,30.00,WSW,249,0.0,0.0,92,0.00,,---,0.00,VWS V14.01,2013-02-25 08:52:00,
2013-02-25 03:57:00,65.8,63.8,30.00,WSW,249,0.0,0.0,93,0.00,,---,0.00,VWS V14.01,2013-02-25 08:57:00,
2013-02-25 04:02:00,65.8,63.8,30.00,WSW,249,0.0,0.0,93,0.00,,---,0.00,VWS V14.01,2013-02-25 09:02:00,
2013-02-25 04:07:00,65.8,63.8,30.00,WSW,249,0.0,0.0,93,0.00,,---,0.00,VWS V14.01,2013-02-25 09:07:00,
2013-02-25 04:13:00,65.7,63.6,30.00,WSW,249,0.0,0.0,93,0.00,,---,0.00,VWS V14.01,2013-02-25 09:13:00,
2013-02-25 04:18:00,65.8,64.1,30.00,South,176,0.0,0.0,94,0.00,,---,0.00,VWS V14.01,2013-02-25 09:18:00,
2013-02-25 04:23:00,65.8,64.1,30.00,SE,136,0.0,0.0,94,0.00,,---,0.00,VWS V14.01,2013-02-25 09:23:00,
2013-02-25 04:28:00,66.0,64.2,30.00,SE,136,0.0,0.0,94,0.00,,---,0.00,VWS V14.01,2013-02-25 09:28:00,
2013-02-25 04:33:00,66.0,64.2,30.00,SE,136,0.0,0.0,94,0.00,,---,0.00,VWS V14.01,2013-02-25 09:33:00,
2013-02-25 04:38:00,65.8,64.1,30.00,SE,136,0.0,0.0,94,0.00,,---,0.00,VWS V14.01,2013-02-25 09:38:00,
2013-02-25 04:43:00,65.8,63.8,30.00,SE,136,0.0,0.0,93,0.00,,---,0.00,VWS V14.01,2013-02-25 09:43:00,
2013-02-25 04:48:00,65.8,63.8,30.00,SE,136,0.0,0.0,93,0.00,,---,0.00,VWS V14.01,2013-02-25 09:48:00,
2013-02-25 04:53:00,65.8,64.1,30.00,SE,136,0.0,0.0,94,0.00,,---,0.00,VWS V14.01,2013-02-25 09:53:00,
2013-02-25 04:58:00,65.8,64.1,30.00,SE,136,0.0,0.0,94,0.00,,---,0.00,VWS V14.01,2013-02-25 09:58:00,
2013-02-25 05:03:00,65.8,64.1,30.00,SE,136,0.0,0.0,94,0.00,,---,0.00,VWS V14.01,2013-02-25 10:03:00,
2013-02-25 05:08:00,65.8,64.1,30.00,SE,136,0.0,0.0,94,0.00,,---,0.00,VWS V14.01,2013-02-25 10:08:00,
2013-02-25 05:13:00,65.7,63.9,30.00,SE,136,0.0,0.0,94,0.00,,---,0.00,VWS V14.01,2013-02-25 10:13:00,
2013-02-25 05:18:00,65.5,63.7,30.00,SE,136,0.0,0.0,94,0.00,,---,0.00,VWS V14.01,2013-02-25 10:18:00,
2013-02-25 05:23:00,65.1,63.0,30.00,SE,136,0.0,0.0,93,0.00,,---,0.00,VWS V14.01,2013-02-25 10:23:00,
2013-02-25 05:28:00,65.1,63.3,30.00,SE,136,0.0,0.0,94,0.00,,---,0.00,VWS V14.01,2013-02-25 10:28:00,
2013-02-25 05:33:00,65.1,63.3,30.00,SE,136,0.0,0.0,94,0.00,,---,0.00,VWS V14.01,2013-02-25 10:33:00,
2013-02-25 05:38:00,65.1,63.3,30.00,SE,136,0.0,0.0,94,0.00,,---,0.00,VWS V14.01,2013-02-25 10:38:00,
2013-02-25 05:43:00,65.3,63.5,30.00,SE,136,0.0,0.0,94,0.00,,---,0.00,VWS V14.01,2013-02-25 10:43:00,
2013-02-25 05:49:00,65.3,63.8,30.00,SE,136,0.0,0.0,95,0.00,,---,0.00,VWS V14.01,2013-02-25 10:49:00,
2013-02-25 05:54:00,65.3,63.8,30.00,SE,136,0.0,0.0,95,0.00,,---,0.00,VWS V14.01,2013-02-25 10:54:00,
2013-02-25 05:59:00,65.3,63.8,30.00,SE,136,0.0,0.0,95,0.00,,---,0.00,VWS V14.01,2013-02-25 10:59:00,
2013-02-25 06:04:00,65.3,63.8,30.00,SE,136,0.0,0.0,95,0.00,,---,0.00,VWS V14.01,2013-02-25 11:04:00,
2013-02-25 06:09:00,65.1,63.7,30.00,SE,136,0.0,0.0,95,0.00,,---,0.00,VWS V14.01,2013-02-25 11:09:00,
2013-02-25 06:14:00,64.9,63.2,30.00,SE,136,0.0,0.0,94,0.00,,---,0.00,VWS V14.01,2013-02-25 11:14:00,
2013-02-25 06:19:00,64.8,63.3,30.00,SE,136,0.0,0.0,95,0.00,,---,0.00,VWS V14.01,2013-02-25 11:19:00,
2013-02-25 06:24:00,64.8,63.0,30.00,SE,136,0.0,0.0,94,0.00,,---,0.00,VWS V14.01,2013-02-25 11:24:00,
2013-02-25 06:29:00,64.8,63.3,30.00,SE,136,0.0,0.0,95,0.00,,---,0.00,VWS V14.01,2013-02-25 11:29:00,
2013-02-25 06:34:00,64.8,63.3,30.00,SE,136,0.0,0.0,95,0.00,,---,0.00,VWS V14.01,2013-02-25 11:34:00,
2013-02-25 06:39:00,64.8,63.3,30.00,SE,136,0.0,0.0,95,0.00,,---,0.00,VWS V14.01,2013-02-25 11:39:00,
2013-02-25 06:44:00,64.6,63.1,30.00,SE,136,0.0,0.0,95,0.00,,---,0.00,VWS V14.01,2013-02-25 11:44:00,
2013-02-25 06:49:00,64.6,63.1,30.00,SE,136,0.0,0.0,95,0.00,,---,0.00,VWS V14.01,2013-02-25 11:49:00,
2013-02-25 06:54:00,64.8,63.3,30.00,SE,136,0.0,0.0,95,0.00,,---,0.00,VWS V14.01,2013-02-25 11:54:00,
2013-02-25 06:59:00,64.9,63.5,30.00,SE,136,0.0,0.0,95,0.00,,---,0.00,VWS V14.01,2013-02-25 11:59:00,
2013-02-25 07:04:00,65.1,63.7,30.00,SE,136,0.0,0.0,95,0.00,,---,0.00,VWS V14.01,2013-02-25 12:04:00,
2013-02-25 07:09:00,65.5,63.7,30.00,SE,136,0.0,0.0,94,0.00,,---,0.00,VWS V14.01,2013-02-25 12:09:00,
2013-02-25 07:14:00,65.8,64.1,30.00,SE,136,0.0,0.0,94,0.00,,---,0.00,VWS V14.01,2013-02-25 12:14:00,
2013-02-25 07:19:00,66.4,64.9,30.00,SE,136,0.0,0.0,95,0.00,,---,0.00,VWS V14.01,2013-02-25 12:19:00,
2013-02-25 07:24:00,66.7,65.3,30.00,SE,136,0.0,0.0,95,0.00,,---,0.00,VWS V14.01,2013-02-25 12:24:00,
2013-02-25 07:29:00,67.3,65.8,30.00,SE,136,0.0,0.0,95,0.00,,---,0.00,VWS V14.01,2013-02-25 12:29:00,
2013-02-25 07:35:00,67.5,66.0,30.00,SE,136,0.0,0.0,95,0.00,,---,0.00,VWS V14.01,2013-02-25 12:35:00,
2013-02-25 07:40:00,68.0,66.2,30.00,SE,136,0.0,0.0,94,0.00,,---,0.00,VWS V14.01,2013-02-25 12:40:00,
2013-02-25 07:45:00,68.5,66.8,30.00,SE,136,0.0,0.0,94,0.00,,---,0.00,VWS V14.01,2013-02-25 12:45:00,
2013-02-25 07:50:00,69.8,68.0,30.00,SE,136,0.0,0.0,94,0.00,,---,0.00,VWS V14.01,2013-02-25 12:50:00,
2013-02-25 07:56:00,71.1,69.2,30.00,SE,136,0.0,0.0,94,0.00,,---,0.00,VWS V14.01,2013-02-25 12:56:00,
2013-02-25 08:01:00,72.9,71.0,30.00,SE,136,0.0,0.0,94,0.00,,---,0.00,VWS V14.01,2013-02-25 13:01:00,
2013-02-25 08:07:00,72.7,70.2,30.03,SE,136,0.0,0.0,92,0.00,,---,0.00,VWS V14.01,2013-02-25 13:07:00,
2013-02-25 08:12:00,72.9,70.4,30.03,SE,136,0.0,0.0,92,0.00,,---,0.00,VWS V14.01,2013-02-25 13:12:00,
2013-02-25 08:17:00,73.0,70.3,30.03,SE,136,0.0,0.0,91,0.00,,---,0.00,VWS V14.01,2013-02-25 13:17:00,
2013-02-25 08:22:00,73.2,70.8,30.03,SE,136,0.0,0.0,92,0.00,,---,0.00,VWS V14.01,2013-02-25 13:22:00,
2013-02-25 08:27:00,73.4,70.6,30.03,SE,136,0.0,0.0,91,0.00,,---,0.00,VWS V14.01,2013-02-25 13:27:00,
2013-02-25 08:32:00,74.1,71.3,30.03,SE,136,0.0,0.0,91,0.00,,---,0.00,VWS V14.01,2013-02-25 13:32:00,
2013-02-25 08:37:00,74.3,71.2,30.03,SE,136,0.0,0.0,90,0.00,,---,0.00,VWS V14.01,2013-02-25 13:37:00,
2013-02-25 08:42:00,74.3,71.2,30.03,SE,136,0.0,0.0,90,0.00,,---,0.00,VWS V14.01,2013-02-25 13:42:00,
2013-02-25 08:47:00,75.9,71.4,30.03,SSE,163,2.7,2.7,86,0.00,,---,0.00,VWS V14.01,2013-02-25 13:47:00,
2013-02-25 08:53:00,76.6,71.1,30.03,ESE,108,3.1,3.1,83,0.00,,---,0.00,VWS V14.01,2013-02-25 13:53:00,
2013-02-25 08:58:00,77.4,64.7,30.03,SSE,148,0.0,0.0,65,0.00,,---,0.00,VWS V14.01,2013-02-25 13:58:00,
2013-02-25 09:03:00,79.5,53.8,30.03,SSE,159,0.0,0.0,41,0.00,,---,0.00,VWS V14.01,2013-02-25 14:03:00,
2013-02-25 09:08:00,80.4,54.6,30.03,South,175,3.1,3.1,41,0.00,,---,0.00,VWS V14.01,2013-02-25 14:08:00,
2013-02-25 09:13:00,80.6,52.0,30.03,South,179,0.0,0.0,37,0.00,,---,0.00,VWS V14.01,2013-02-25 14:13:00,
2013-02-25 09:18:00,82.9,49.2,30.03,ESE,117,6.3,6.3,31,0.00,,---,0.00,VWS V14.01,2013-02-25 14:18:00,
2013-02-25 09:23:00,86.7,50.7,30.03,SE,141,0.0,0.0,29,0.00,,---,0.00,VWS V14.01,2013-02-25 14:23:00,
2013-02-25 09:28:00,86.5,47.6,30.03,SSE,155,5.4,5.4,26,0.00,,---,0.00,VWS V14.01,2013-02-25 14:28:00,
2013-02-25 09:33:00,85.5,49.6,30.03,SSE,165,3.6,3.6,29,0.00,,---,0.00,VWS V14.01,2013-02-25 14:33:00,
2013-02-25 09:38:00,87.1,50.1,30.03,SSE,162,0.0,0.0,28,0.00,,---,0.00,VWS V14.01,2013-02-25 14:38:00,
2013-02-25 09:44:00,88.7,48.4,30.03,SW,222,2.7,3.6,25,0.00,,---,0.00,VWS V14.01,2013-02-25 14:44:00,
2013-02-25 09:49:00,88.5,46.0,30.03,SSE,154,5.4,5.4,23,0.00,,---,0.00,VWS V14.01,2013-02-25 14:49:00,
2013-02-25 09:54:00,88.3,47.0,30.03,South,191,2.2,2.2,24,0.00,,---,0.00,VWS V14.01,2013-02-25 14:54:00,
2013-02-25 09:59:00,88.2,45.7,30.03,SSE,162,0.0,5.4,23,0.00,,---,0.00,VWS V14.01,2013-02-25 14:59:00,
2013-02-25 10:04:00,88.9,45.2,30.03,West,262,3.6,3.6,22,0.00,,---,0.00,VWS V14.01,2013-02-25 15:04:00,
2013-02-25 10:09:00,87.4,44.0,30.03,SSE,147,2.7,2.7,22,0.00,,---,0.00,VWS V14.01,2013-02-25 15:09:00,
2013-02-25 10:14:00,84.9,49.2,30.03,ESE,123,3.6,3.6,29,0.00,,---,0.00,VWS V14.01,2013-02-25 15:14:00,
2013-02-25 10:19:00,84.9,49.2,30.03,SE,136,4.0,4.0,29,0.00,,---,0.00,VWS V14.01,2013-02-25 15:19:00,
2013-02-25 10:24:00,90.1,45.0,30.03,South,174,3.1,3.1,21,0.00,,---,0.00,VWS V14.01,2013-02-25 15:24:00,
2013-02-25 10:29:00,90.7,44.1,30.03,South,173,5.4,6.3,20,0.00,,---,0.00,VWS V14.01,2013-02-25 15:29:00,
2013-02-25 10:34:00,90.3,42.5,30.03,SE,143,4.5,4.5,19,0.00,,---,0.00,VWS V14.01,2013-02-25 15:34:00,
2013-02-25 10:40:00,92.5,42.9,30.03,South,186,3.1,3.1,18,0.00,,---,0.00,VWS V14.01,2013-02-25 15:40:00,
2013-02-25 10:45:00,93.6,43.7,30.03,SE,146,5.4,6.3,18,0.00,,---,0.00,VWS V14.01,2013-02-25 15:45:00,
2013-02-25 10:50:00,94.5,43.0,30.03,SE,129,4.9,8.1,17,0.00,,---,0.00,VWS V14.01,2013-02-25 15:50:00,
2013-02-25 10:55:00,95.4,43.7,30.03,ESE,122,5.4,5.4,17,0.00,,---,0.00,VWS V14.01,2013-02-25 15:55:00,
2013-02-25 11:00:00,95.4,43.7,30.03,SSW,205,3.1,3.1,17,0.00,,---,0.00,VWS V14.01,2013-02-25 16:00:00,
2013-02-25 11:05:00,98.2,44.4,30.03,ESE,118,3.1,3.1,16,0.00,,---,0.00,VWS V14.01,2013-02-25 16:05:00,
2013-02-25 11:10:00,97.2,43.5,30.03,SE,140,6.3,6.3,16,0.00,,---,0.00,VWS V14.01,2013-02-25 16:10:00,
2013-02-25 11:15:00,96.6,43.1,30.03,SE,137,5.8,5.8,16,0.00,,---,0.00,VWS V14.01,2013-02-25 16:15:00,
2013-02-25 11:20:00,95.0,41.8,30.03,SSE,154,4.0,4.0,16,0.00,,---,0.00,VWS V14.01,2013-02-25 16:20:00,
2013-02-25 11:25:00,94.6,43.1,30.03,SE,137,6.3,6.3,17,0.00,,---,0.00,VWS V14.01,2013-02-25 16:25:00,
2013-02-25 11:30:00,91.0,41.7,30.03,SW,229,3.1,3.1,18,0.00,,---,0.00,VWS V14.01,2013-02-25 16:30:00,
2013-02-25 11:35:00,90.9,41.5,30.00,South,173,10.5,10.5,18,0.00,,---,0.00,VWS V14.01,2013-02-25 16:35:00,
2013-02-25 11:40:00,95.0,43.4,30.00,SE,130,3.1,10.5,17,0.00,,---,0.00,VWS V14.01,2013-02-25 16:40:00,
2013-02-25 11:46:00,93.4,42.1,30.00,East,96,6.3,6.3,17,0.00,,---,0.00,VWS V14.01,2013-02-25 16:46:00,
2013-02-25 11:51:00,93.4,42.1,30.00,SSW,206,5.8,5.8,17,0.00,,---,0.00,VWS V14.01,2013-02-25 16:51:00,
2013-02-25 11:56:00,93.4,42.1,30.00,South,177,5.8,5.8,17,0.00,,---,0.00,VWS V14.01,2013-02-25 16:56:00,
2013-02-25 12:01:00,91.9,40.9,30.00,SSE,155,8.7,8.7,17,0.00,,---,0.00,VWS V14.01,2013-02-25 17:01:00,
2013-02-25 12:06:00,91.8,40.8,30.00,South,190,3.6,3.6,17,0.00,,---,0.00,VWS V14.01,2013-02-25 17:06:00,
2013-02-25 12:11:00,96.6,43.1,30.00,SE,136,6.3,6.3,16,0.00,,---,0.00,VWS V14.01,2013-02-25 17:11:00,
2013-02-25 12:16:00,97.2,43.5,30.00,SSE,147,3.6,3.6,16,0.00,,---,0.00,VWS V14.01,2013-02-25 17:16:00,
2013-02-25 12:21:00,94.8,43.3,30.00,SE,137,6.7,6.7,17,0.00,,---,0.00,VWS V14.01,2013-02-25 17:21:00,
2013-02-25 12:26:00,92.5,41.4,30.00,ESE,103,6.3,6.3,17,0.00,,---,0.00,VWS V14.01,2013-02-25 17:26:00,
2013-02-25 12:31:00,90.1,41.0,30.00,East,88,3.1,3.1,18,0.00,,---,0.00,VWS V14.01,2013-02-25 17:31:00,
2013-02-25 12:36:00,90.1,41.0,30.00,ESE,112,3.1,4.9,18,0.00,,---,0.00,VWS V14.01,2013-02-25 17:36:00,
2013-02-25 12:41:00,90.7,41.4,30.00,SSE,151,2.7,4.9,18,0.00,,---,0.00,VWS V14.01,2013-02-25 17:41:00,
2013-02-25 12:46:00,90.9,41.5,30.00,SE,136,8.1,8.1,18,0.00,,---,0.00,VWS V14.01,2013-02-25 17:46:00,
2013-02-25 12:51:00,90.0,40.8,29.97,SW,216,3.1,5.4,18,0.00,,---,0.00,VWS V14.01,2013-02-25 17:51:00,
2013-02-25 12:56:00,87.4,41.5,29.97,ESE,112,4.0,4.0,20,0.00,,---,0.00,VWS V14.01,2013-02-25 17:56:00,
2013-02-25 13:01:00,87.6,41.6,29.97,SSE,162,3.6,3.6,20,0.00,,---,0.00,VWS V14.01,2013-02-25 18:01:00,
2013-02-25 13:07:00,86.9,42.3,29.97,SE,137,2.7,2.7,21,0.00,,---,0.00,VWS V14.01,2013-02-25 18:07:00,
2013-02-25 13:12:00,85.5,41.1,29.97,SSW,211,2.7,3.1,21,0.00,,---,0.00,VWS V14.01,2013-02-25 18:12:00,
2013-02-25 13:17:00,84.9,41.9,29.97,South,169,4.9,4.9,22,0.00,,---,0.00,VWS V14.01,2013-02-25 18:17:00,
2013-02-25 13:22:00,84.9,41.9,29.97,ESE,120,3.6,3.6,22,0.00,,---,0.00,VWS V14.01,2013-02-25 18:22:00,
2013-02-25 13:27:00,85.1,46.4,29.97,ESE,120,4.0,4.0,26,0.00,,---,0.00,VWS V14.01,2013-02-25 18:27:00,
2013-02-25 13:32:00,86.0,46.1,29.97,SSE,147,0.0,2.2,25,0.00,,---,0.00,VWS V14.01,2013-02-25 18:32:00,
2013-02-25 13:37:00,87.4,44.0,29.97,SSE,161,6.3,6.3,22,0.00,,---,0.00,VWS V14.01,2013-02-25 18:37:00,
2013-02-25 13:42:00,87.6,44.1,29.97,South,170,8.3,8.3,22,0.00,,---,0.00,VWS V14.01,2013-02-25 18:42:00,
2013-02-25 13:47:00,91.4,43.4,29.97,SE,125,5.8,5.8,19,0.00,,---,0.00,VWS V14.01,2013-02-25 18:47:00,
2013-02-25 13:52:00,88.7,43.8,29.97,SW,219,4.0,5.8,21,0.00,,---,0.00,VWS V14.01,2013-02-25 18:52:00,
2013-02-25 13:57:00,83.5,49.7,29.97,SSE,165,5.8,5.8,31,0.00,,---,0.00,VWS V14.01,2013-02-25 18:57:00,
2013-02-25 14:02:00,82.0,52.5,29.97,SE,127,4.9,4.9,36,0.00,,---,0.00,VWS V14.01,2013-02-25 19:02:00,
2013-02-25 14:07:00,82.4,52.0,29.97,ESE,107,4.0,4.0,35,0.00,,---,0.00,VWS V14.01,2013-02-25 19:07:00,
2013-02-25 14:12:00,82.4,52.0,29.97,ESE,123,3.1,3.1,35,0.00,,---,0.00,VWS V14.01,2013-02-25 19:12:00,
2013-02-25 14:17:00,82.0,52.5,29.97,SSE,149,4.0,4.0,36,0.00,,---,0.00,VWS V14.01,2013-02-25 19:17:00,
2013-02-25 14:22:00,80.2,55.1,29.97,ESE,109,2.2,2.2,42,0.00,,---,0.00,VWS V14.01,2013-02-25 19:22:00,
2013-02-25 14:28:00,78.4,56.0,29.97,ESE,115,2.7,2.7,46,0.00,,---,0.00,VWS V14.01,2013-02-25 19:28:00,
2013-02-25 14:33:00,76.6,59.8,29.97,SE,140,5.4,5.4,56,0.00,,---,0.00,VWS V14.01,2013-02-25 19:33:00,
2013-02-25 14:38:00,76.6,62.7,29.94,East,92,4.9,4.9,62,0.00,,---,0.00,VWS V14.01,2013-02-25 19:38:00,
2013-02-25 14:43:00,76.5,62.0,29.94,SSE,154,2.7,2.7,61,0.00,,---,0.00,VWS V14.01,2013-02-25 19:43:00,
2013-02-25 14:48:00,76.5,62.9,29.94,SE,125,0.0,0.0,63,0.00,,---,0.00,VWS V14.01,2013-02-25 19:48:00,
2013-02-25 14:53:00,76.5,63.4,29.97,ESE,118,3.1,3.1,64,0.00,,---,0.00,VWS V14.01,2013-02-25 19:53:00,
2013-02-25 14:58:00,76.8,57.9,29.97,SE,132,5.4,5.4,52,0.00,,---,0.00,VWS V14.01,2013-02-25 19:58:00,
2013-02-25 15:03:00,78.3,54.6,29.97,South,169,3.1,3.1,44,0.00,,---,0.00,VWS V14.01,2013-02-25 20:03:00,
2013-02-25 15:08:00,78.6,53.0,29.94,SSE,155,3.1,3.1,41,0.00,,---,0.00,VWS V14.01,2013-02-25 20:08:00,
2013-02-25 15:13:00,78.6,53.6,29.94,East,88,2.2,2.2,42,0.00,,---,0.00,VWS V14.01,2013-02-25 20:13:00,
2013-02-25 15:18:00,78.4,54.1,29.94,ESE,116,3.1,5.8,43,0.00,,---,0.00,VWS V14.01,2013-02-25 20:18:00,
2013-02-25 15:23:00,78.3,54.6,29.94,SSE,150,3.6,3.6,44,0.00,,---,0.00,VWS V14.01,2013-02-25 20:23:00,
2013-02-25 15:28:00,78.4,54.1,29.94,SSE,163,0.0,0.0,43,0.00,,---,0.00,VWS V14.01,2013-02-25 20:28:00,
2013-02-25 15:33:00,79.3,53.0,29.94,South,185,0.0,2.2,40,0.00,,---,0.00,VWS V14.01,2013-02-25 20:33:00,
2013-02-25 15:38:00,79.5,52.4,29.94,South,183,5.4,5.4,39,0.00,,---,0.00,VWS V14.01,2013-02-25 20:38:00,
2013-02-25 15:43:00,80.6,48.0,29.94,West,280,4.0,5.4,32,0.00,,---,0.00,VWS V14.01,2013-02-25 20:43:00,
2013-02-25 15:48:00,83.1,48.5,29.94,SSE,165,5.4,5.4,30,0.00,,---,0.00,VWS V14.01,2013-02-25 20:48:00,
2013-02-25 15:54:00,83.5,48.8,29.94,SE,127,3.1,3.1,30,0.00,,---,0.00,VWS V14.01,2013-02-25 20:54:00,
2013-02-25 15:59:00,85.1,48.4,29.94,South,171,2.7,6.3,28,0.00,,---,0.00,VWS V14.01,2013-02-25 20:59:00,
2013-02-25 16:04:00,84.4,46.8,29.94,SE,144,3.1,3.1,27,0.00,,---,0.00,VWS V14.01,2013-02-25 21:04:00,
2013-02-25 16:09:00,83.8,46.3,29.94,SSW,204,2.7,2.7,27,0.00,,---,0.00,VWS V14.01,2013-02-25 21:09:00,
2013-02-25 16:14:00,83.8,46.3,29.94,South,177,3.6,3.6,27,0.00,,---,0.00,VWS V14.01,2013-02-25 21:14:00,
2013-02-25 16:19:00,85.6,45.8,29.94,SW,217,3.1,3.1,25,0.00,,---,0.00,VWS V14.01,2013-02-25 21:19:00,
2013-02-25 16:24:00,85.6,46.8,29.94,ESE,122,3.6,3.6,26,0.00,,---,0.00,VWS V14.01,2013-02-25 21:24:00,
2013-02-25 16:29:00,84.0,44.5,29.94,SSE,165,6.3,6.3,25,0.00,,---,0.00,VWS V14.01,2013-02-25 21:29:00,
2013-02-25 16:34:00,83.3,44.9,29.94,SSE,165,7.6,7.6,26,0.00,,---,0.00,VWS V14.01,2013-02-25 21:34:00,
2013-02-25 16:39:00,83.7,45.2,29.94,SSE,153,2.7,2.7,26,0.00,,---,0.00,VWS V14.01,2013-02-25 21:39:00,
2013-02-25 16:44:00,83.8,44.3,29.94,SSW,192,5.4,5.4,25,0.00,,---,0.00,VWS V14.01,2013-02-25 21:44:00,
2013-02-25 16:49:00,84.2,44.6,29.94,SE,146,2.7,2.7,25,0.00,,---,0.00,VWS V14.01,2013-02-25 21:49:00,
2013-02-25 16:54:00,84.0,44.5,29.94,SSE,167,3.1,5.4,25,0.00,,---,0.00,VWS V14.01,2013-02-25 21:54:00,
2013-02-25 16:59:00,84.7,45.1,29.94,SSW,193,3.6,3.6,25,0.00,,---,0.00,VWS V14.01,2013-02-25 21:59:00,
2013-02-25 17:04:00,84.7,45.1,29.94,SSE,167,6.3,6.3,25,0.00,,---,0.00,VWS V14.01,2013-02-25 22:04:00,
2013-02-25 17:09:00,84.0,44.5,29.94,SE,140,4.0,4.0,25,0.00,,---,0.00,VWS V14.01,2013-02-25 22:09:00,
2013-02-25 17:14:00,84.0,45.5,29.94,SE,141,4.9,4.9,26,0.00,,---,0.00,VWS V14.01,2013-02-25 22:14:00,
2013-02-25 17:20:00,83.8,44.3,29.94,East,100,6.3,7.2,25,0.00,,---,0.00,VWS V14.01,2013-02-25 22:20:00,
2013-02-25 17:25:00,82.6,44.3,29.94,SSW,207,3.1,3.1,26,0.00,,---,0.00,VWS V14.01,2013-02-25 22:25:00,
2013-02-25 17:30:00,81.3,46.1,29.94,SE,145,3.1,3.1,29,0.00,,---,0.00,VWS V14.01,2013-02-25 22:30:00,
2013-02-25 17:35:00,80.8,45.6,29.94,SSE,161,4.0,7.6,29,0.00,,---,0.00,VWS V14.01,2013-02-25 22:35:00,
2013-02-25 17:40:00,81.0,46.6,29.94,SE,146,3.6,3.6,30,0.00,,---,0.00,VWS V14.01,2013-02-25 22:40:00,
2013-02-25 17:45:00,80.6,46.3,29.94,SSE,155,2.7,2.7,30,0.00,,---,0.00,VWS V14.01,2013-02-25 22:45:00,
2013-02-25 17:50:00,80.8,46.5,29.94,NE,41,5.4,5.4,30,0.00,,---,0.00,VWS V14.01,2013-02-25 22:50:00,
2013-02-25 17:55:00,79.2,46.0,29.94,SE,144,6.3,6.3,31,0.00,,---,0.00,VWS V14.01,2013-02-25 22:55:00,
2013-02-25 18:00:00,78.3,46.0,29.94,SSE,161,5.4,5.4,32,0.00,,---,0.00,VWS V14.01,2013-02-25 23:00:00,
2013-02-25 18:05:00,77.7,45.5,29.94,SE,133,5.8,5.8,32,0.00,,---,0.00,VWS V14.01,2013-02-25 23:05:00,
2013-02-25 18:10:00,77.4,46.0,29.94,SE,134,4.9,4.9,33,0.00,,---,0.00,VWS V14.01,2013-02-25 23:10:00,
2013-02-25 18:15:00,76.8,45.6,29.94,SSE,151,4.9,4.9,33,0.00,,---,0.00,VWS V14.01,2013-02-25 23:15:00,
2013-02-25 18:20:00,76.6,45.4,29.94,SE,129,4.9,4.9,33,0.00,,---,0.00,VWS V14.01,2013-02-25 23:20:00,
2013-02-25 18:25:00,75.9,44.8,29.94,SE,127,2.7,3.1,33,0.00,,---,0.00,VWS V14.01,2013-02-25 23:25:00,
2013-02-25 18:30:00,75.6,45.2,29.94,ESE,119,2.7,2.7,34,0.00,,---,0.00,VWS V14.01,2013-02-25 23:30:00,
2013-02-25 18:35:00,75.0,46.3,29.94,South,171,3.6,3.6,36,0.00,,---,0.00,VWS V14.01,2013-02-25 23:35:00,
2013-02-25 18:41:00,74.7,46.7,29.94,SE,126,3.1,3.1,37,0.00,,---,0.00,VWS V14.01,2013-02-25 23:41:00,
2013-02-25 18:46:00,74.5,47.2,29.94,ESE,115,3.6,3.6,38,0.00,,---,0.00,VWS V14.01,2013-02-25 23:46:00,
2013-02-25 18:51:00,74.5,47.2,29.97,SE,145,3.6,3.6,38,0.00,,---,0.00,VWS V14.01,2013-02-25 23:51:00,
2013-02-25 18:56:00,74.1,48.3,29.97,ESE,108,3.1,3.1,40,0.00,,---,0.00,VWS V14.01,2013-02-25 23:56:00,
2013-02-25 19:01:00,73.8,48.6,29.97,SSE,153,2.7,2.7,41,0.00,,---,0.00,VWS V14.01,2013-02-26 00:01:00,
2013-02-25 19:06:00,73.6,49.1,29.97,SE,130,4.9,4.9,42,0.00,,---,0.00,VWS V14.01,2013-02-26 00:06:00,
2013-02-25 19:11:00,73.6,49.1,29.94,SE,140,3.6,3.6,42,0.00,,---,0.00,VWS V14.01,2013-02-26 00:11:00,
2013-02-25 19:16:00,73.6,49.1,29.94,SSE,159,2.7,2.7,42,0.00,,---,0.00,VWS V14.01,2013-02-26 00:16:00,
2013-02-25 19:21:00,73.2,49.4,29.97,SSE,149,3.1,3.1,43,0.00,,---,0.00,VWS V14.01,2013-02-26 00:21:00,
2013-02-25 19:26:00,73.0,49.9,29.97,SE,138,3.6,3.6,44,0.00,,---,0.00,VWS V14.01,2013-02-26 00:26:00,
2013-02-25 19:31:00,73.0,49.9,29.97,ESE,118,2.2,2.2,44,0.00,,---,0.00,VWS V14.01,2013-02-26 00:31:00,
2013-02-25 19:36:00,72.7,50.1,29.97,East,83,3.6,3.6,45,0.00,,---,0.00,VWS V14.01,2013-02-26 00:36:00,
2013-02-25 19:41:00,72.9,50.3,29.97,SSE,153,0.0,0.0,45,0.00,,---,0.00,VWS V14.01,2013-02-26 00:41:00,
2013-02-25 19:46:00,72.7,50.1,29.97,SSE,155,3.6,3.6,45,0.00,,---,0.00,VWS V14.01,2013-02-26 00:46:00,
2013-02-25 19:51:00,72.0,51.2,29.97,SE,127,0.0,3.1,48,0.00,,---,0.00,VWS V14.01,2013-02-26 00:51:00,
2013-02-25 19:56:00,71.8,51.6,29.97,SE,142,0.0,0.0,49,0.00,,---,0.00,VWS V14.01,2013-02-26 00:56:00,
2013-02-25 20:01:00,71.6,54.1,29.97,SE,138,3.1,3.1,54,0.00,,---,0.00,VWS V14.01,2013-02-26 01:01:00,
2013-02-25 20:06:00,71.6,54.1,29.97,ESE,108,3.6,3.6,54,0.00,,---,0.00,VWS V14.01,2013-02-26 01:06:00,
2013-02-25 20:12:00,71.6,56.5,29.97,SE,138,0.0,0.0,59,0.00,,---,0.00,VWS V14.01,2013-02-26 01:12:00,
2013-02-25 20:17:00,71.4,56.8,29.97,ESE,102,0.0,2.7,60,0.00,,---,0.00,VWS V14.01,2013-02-26 01:17:00,
2013-02-25 20:22:00,71.4,58.2,29.97,SE,130,0.0,0.0,63,0.00,,---,0.00,VWS V14.01,2013-02-26 01:22:00,
2013-02-25 20:27:00,70.9,58.1,29.97,SSE,152,3.1,3.1,64,0.00,,---,0.00,VWS V14.01,2013-02-26 01:27:00,
2013-02-25 20:32:00,70.7,59.6,29.97,SE,131,2.2,2.2,68,0.00,,---,0.00,VWS V14.01,2013-02-26 01:32:00,
2013-02-25 20:37:00,70.7,59.6,29.97,ESE,122,0.0,0.0,68,0.00,,---,0.00,VWS V14.01,2013-02-26 01:37:00,
2013-02-25 20:42:00,70.5,60.3,29.97,SSE,151,2.2,2.2,70,0.00,,---,0.00,VWS V14.01,2013-02-26 01:42:00,
2013-02-25 20:47:00,70.5,60.7,29.97,ESE,122,2.2,2.7,71,0.00,,---,0.00,VWS V14.01,2013-02-26 01:47:00,
2013-02-25 20:52:00,70.3,61.3,29.97,SE,129,3.1,3.1,73,0.00,,---,0.00,VWS V14.01,2013-02-26 01:52:00,
2013-02-25 20:57:00,70.5,62.6,29.97,East,96,0.0,0.0,76,0.00,,---,0.00,VWS V14.01,2013-02-26 01:57:00,
2013-02-25 21:02:00,70.5,63.3,29.97,SE,126,3.6,3.6,78,0.00,,---,0.00,VWS V14.01,2013-02-26 02:02:00,
2013-02-25 21:07:00,70.3,63.2,29.97,SE,131,0.0,0.0,78,0.00,,---,0.00,VWS V14.01,2013-02-26 02:07:00,
2013-02-25 21:12:00,70.2,63.0,30.00,East,100,0.0,0.0,78,0.00,,---,0.00,VWS V14.01,2013-02-26 02:12:00,
2013-02-25 21:17:00,69.6,62.8,30.00,East,100,0.0,0.0,79,0.00,,---,0.00,VWS V14.01,2013-02-26 02:17:00,
2013-02-25 21:22:00,69.3,62.5,30.00,East,86,0.0,0.0,79,0.00,,---,0.00,VWS V14.01,2013-02-26 02:22:00,
2013-02-25 21:28:00,69.4,63.7,30.00,SE,125,3.1,3.1,82,0.00,,---,0.00,VWS V14.01,2013-02-26 02:28:00,
2013-02-25 21:33:00,69.4,63.7,30.00,SSE,147,3.1,3.1,82,0.00,,---,0.00,VWS V14.01,2013-02-26 02:33:00,
2013-02-25 21:38:00,69.6,64.9,30.00,SE,124,0.0,0.0,85,0.00,,---,0.00,VWS V14.01,2013-02-26 02:38:00,
2013-02-25 21:43:00,70.0,66.6,29.97,SSE,167,0.0,0.0,89,0.00,,---,0.00,VWS V14.01,2013-02-26 02:43:00,
2013-02-25 21:48:00,69.6,66.2,29.97,SE,133,2.2,2.2,89,0.00,,---,0.00,VWS V14.01,2013-02-26 02:48:00,
2013-02-25 21:53:00,69.6,66.2,29.97,SE,141,2.7,2.7,89,0.00,,---,0.00,VWS V14.01,2013-02-26 02:53:00,
2013-02-25 21:58:00,69.8,66.7,29.97,ESE,114,3.6,5.8,90,0.00,,---,0.00,VWS V14.01,2013-02-26 02:58:00,
2013-02-25 22:03:00,70.0,67.6,29.97,SE,143,2.7,2.7,92,0.00,,---,0.00,VWS V14.01,2013-02-26 03:03:00,
2013-02-25 22:08:00,70.2,68.1,29.97,SE,133,3.1,3.1,93,0.00,,---,0.00,VWS V14.01,2013-02-26 03:08:00,
2013-02-25 22:13:00,70.3,68.2,29.97,ESE,120,3.6,3.6,93,0.00,,---,0.00,VWS V14.01,2013-02-26 03:13:00,
2013-02-25 22:18:00,70.7,68.9,29.97,SSE,149,0.0,0.0,94,0.00,,---,0.00,VWS V14.01,2013-02-26 03:18:00,
2013-02-25 22:23:00,70.7,68.9,29.97,SE,144,2.7,3.6,94,0.00,,---,0.00,VWS V14.01,2013-02-26 03:23:00,
2013-02-25 22:28:00,70.7,68.9,29.97,SE,130,2.7,6.3,94,0.00,,---,0.00,VWS V14.01,2013-02-26 03:28:00,
2013-02-25 22:33:00,70.9,69.1,29.97,SE,140,6.3,6.3,94,0.00,,---,0.00,VWS V14.01,2013-02-26 03:33:00,
2013-02-25 22:39:00,71.1,69.2,29.97,SE,138,2.2,4.0,94,0.00,,---,0.00,VWS V14.01,2013-02-26 03:39:00,
2013-02-25 22:44:00,71.2,69.7,29.97,SE,141,4.0,4.0,95,0.00,,---,0.00,VWS V14.01,2013-02-26 03:44:00,
2013-02-25 22:49:00,71.4,69.9,29.97,ESE,106,3.1,5.4,95,0.00,,---,0.00,VWS V14.01,2013-02-26 03:49:00,
2013-02-25 22:54:00,71.6,70.1,29.97,SE,145,3.1,3.1,95,0.00,,---,0.00,VWS V14.01,2013-02-26 03:54:00,
2013-02-25 22:59:00,71.6,70.1,29.97,East,96,3.6,3.6,95,0.00,,---,0.00,VWS V14.01,2013-02-26 03:59:00,
2013-02-25 23:04:00,71.6,69.8,29.97,ESE,118,2.7,2.7,94,0.00,,---,0.00,VWS V14.01,2013-02-26 04:04:00,
2013-02-25 23:09:00,71.8,70.3,29.97,ESE,106,2.7,2.7,95,0.00,,---,0.00,VWS V14.01,2013-02-26 04:09:00,
2013-02-25 23:14:00,72.0,70.4,29.97,SE,125,3.1,3.1,95,0.00,,---,0.00,VWS V14.01,2013-02-26 04:14:00,
2013-02-25 23:19:00,72.0,70.4,29.97,East,95,3.6,3.6,95,0.00,,---,0.00,VWS V14.01,2013-02-26 04:19:00,
2013-02-25 23:24:00,72.1,70.6,29.97,SE,134,4.0,4.0,95,0.00,,---,0.00,VWS V14.01,2013-02-26 04:24:00,
2013-02-25 23:29:00,72.1,70.6,29.97,SE,140,4.0,4.0,95,0.00,,---,0.00,VWS V14.01,2013-02-26 04:29:00,
2013-02-25 23:34:00,72.3,70.8,29.97,SE,126,4.0,4.0,95,0.00,,---,0.00,VWS V14.01,2013-02-26 04:34:00,
2013-02-25 23:39:00,72.3,70.8,29.97,SE,145,2.2,3.1,95,0.00,,---,0.00,VWS V14.01,2013-02-26 04:39:00,
2013-02-25 23:45:00,72.5,70.7,29.97,SE,134,6.3,6.3,94,0.00,,---,0.00,VWS V14.01,2013-02-26 04:45:00,
2013-02-25 23:50:00,72.5,70.7,29.97,SSE,155,3.6,3.6,94,0.00,,---,0.00,VWS V14.01,2013-02-26 04:50:00,
2013-02-25 23:55:00,72.5,70.4,29.97,SE,132,5.8,5.8,93,0.00,,---,0.00,VWS V14.01,2013-02-26 04:55:00,